This demonstration page uses our WeatherBlox Daily Observations layout. Learn more.

Left ArrowRight Arrow

41.86663, -103.66717

Hourly Observations for March 31, 2017

Temp ( °F °C ) Dew Point ( °F °C ) Humidity (%) Winds ( mph kmh ) Pressure ( in mb ) Visibility ( mi km ) Precip ( " mm )
12:53 am 00:53 Mostly Cloudy 42 5.6 37 2.8 82 82 ESE 15 24 29.77 1008 10 16 0.01 0.25
1:53 am 01:53 Cloudy 40 4.4 37 2.8 89 89 ESE 15 24 29.78 1009 10 16 0.00 0.00
2:14 am 02:14 Cloudy 39 4 37 3 93 93 ESE 17 28 29.85 1011 10 16 0.00 0.00
2:53 am 02:53 Cloudy with Light Rain 40 4.4 36 2.2 86 86 ESE 13 20 29.79 1009 7 11 0.00 0.03
3:53 am 03:53 Cloudy with Light Rain 38 3.3 36 2.2 93 93 E 13 20 29.80 1009 4 6 0.02 0.51
4:53 am 04:53 Cloudy with Light Rain 38 3.3 35 1.7 89 89 E 14 22 29.82 1010 5 8 0.08 2.03
5:30 am 05:30 Cloudy with Light Rain 37 3 36 2 93 93 E 12 19 29.91 1013 4 6 0.00 0.00
5:40 am 05:40 Cloudy with Light Rain 38 3.3 35 1.7 89 89 E 12 19 29.91 1013 5 8 0.09 2.29
5:53 am 05:53 Cloudy with Light Rain 38 3.3 35 1.7 89 89 ESE 12 19 29.83 1010 5 8 0.09 2.29
6:19 am 06:19 Cloudy with Light Rain 38 3.3 36 2.2 93 93 E 10 17 29.91 1013 5 8 0.00 0.03
6:53 am 06:53 Cloudy with Mist and Fog 38 3.3 35 1.7 89 89 E 12 19 29.84 1011 6 10 0.00 0.03
7:53 am 07:53 Cloudy with Light Rain 38 3.3 36 2.2 93 93 ESE 12 19 29.88 1012 5 8 0.03 0.76
8:53 am 08:53 Cloudy with Light Rain 37 2.8 35 1.7 93 93 ESE 10 17 29.92 1013 3 5 0.04 1.02
9:53 am 09:53 Cloudy with Light Rain 37 2.8 34 1.1 89 89 ESE 12 19 29.96 1015 5 8 0.01 0.25
10:53 am 10:53 Cloudy with Light Rain 36 2.2 34 1.1 93 93 E 9 15 29.99 1016 6 10 0.03 0.76
11:04 am 11:04 Cloudy with Rain 36 2 34 1 93 93 ENE 9 15 30.03 1017 3 5 0.00 0.00
11:11 am 11:11 Cloudy with Rain 36 2.2 33 0.6 89 89 ENE 8 13 30.03 1017 3 4 0.02 0.51
11:24 am 11:24 Cloudy with Light Rain 36 2 34 1 93 93 ENE 9 15 30.03 1017 4 6 0.00 0.00
11:53 am 11:53 Cloudy with Light Snow 36 2.2 33 0.6 89 89 ENE 10 17 30.00 1016 8 13 0.04 1.02
12:08 pm 12:08 Cloudy with Light Snow 36 2 34 1 93 93 ENE 10 17 30.09 1019 9 14 0.00 0.00
12:16 pm 12:16 Cloudy with Light Snow 36 2 34 1 93 93 ENE 9 15 30.09 1019 9 14 0.00 0.00
12:53 pm 12:53 Cloudy with Light Rain 37 2.8 34 1.1 89 89 ENE 13 20 30.01 1016 6 10 0.01 0.25
1:29 pm 13:29 Cloudy with Light Snow 37 2.8 34 1.1 89 89 E 13 20 30.06 1018 5 8 0.01 0.25
1:36 pm 13:36 Cloudy with Light Rain 37 2.8 33 0.6 86 86 E 12 19 30.06 1018 6 10 0.01 0.25
1:43 pm 13:43 Cloudy with Light Rain 37 2.8 33 0.6 86 86 E 13 20 30.06 1018 8 13 0.01 0.25
1:53 pm 13:53 Cloudy with Light Snow 37 2.8 33 0.6 86 86 E 12 19 30.03 1017 8 13 0.01 0.25
2:00 pm 14:00 Cloudy with Light Snow 37 3 34 1 87 87 E 10 17 30.06 1018 8 13 0.00 0.00
2:43 pm 14:43 Cloudy with Light Snow 37 2.8 33 0.6 86 86 E 10 17 30.06 1018 7 11 0.01 0.25
2:53 pm 14:53 Cloudy with Light Snow 37 2.8 34 1.1 89 89 E 13 20 30.04 1017 6 10 0.01 0.25
3:06 pm 15:06 Cloudy with Light Snow 37 2.8 34 1.1 89 89 E 12 19 30.06 1018 5 8 0.01 0.25
3:23 pm 15:23 Cloudy with Light Snow 37 2.8 34 1.1 89 89 ENE 10 17 30.06 1018 6 10 0.01 0.25
3:53 pm 15:53 Cloudy with Light Rain 36 2.2 33 0.6 89 89 E 12 19 30.05 1018 8 13 0.01 0.25
4:20 pm 16:20 Cloudy with Light Snow 36 2 34 1 93 93 E 8 13 30.12 1020 4 6 0.00 0.00
4:35 pm 16:35 Cloudy 36 2.2 34 1.1 93 93 ENE 9 15 30.12 1020 10 16 0.02 0.51
4:53 pm 16:53 Cloudy 37 2.8 34 1.1 89 89 ENE 9 15 30.07 1018 9 14 0.02 0.51
5:53 pm 17:53 Cloudy with Light Rain 37 2.8 34 1.1 89 89 ENE 10 17 30.08 1019 8 13 0.00 0.03
6:07 pm 18:07 Cloudy with Light Rain 37 2.8 34 1.1 89 89 ENE 9 15 30.09 1019 7 11 0.01 0.25
6:53 pm 18:53 Cloudy 37 2.8 34 1.1 89 89 ENE 7 11 30.11 1020 10 16 0.01 0.25
7:36 pm 19:36 Cloudy with Light Rain 37 3 34 1 87 87 ENE 8 13 30.15 1021 6 10 0.00 0.00
7:53 pm 19:53 Cloudy with Light Rain 36 2.2 34 1.1 93 93 NE 8 13 30.13 1020 9 14 0.01 0.25
8:00 pm 20:00 Cloudy with Light Rain 36 2 34 1 93 93 NE 7 11 30.18 1022 9 14 0.00 0.00
8:38 pm 20:38 Cloudy with Light Rain 36 2 34 1 93 93 NNE 7 11 30.21 1023 10 16 0.00 0.00
8:46 pm 20:46 Cloudy with Light Rain 37 3 34 1 87 87 NNE 7 11 30.21 1023 10 16 0.00 0.00
8:53 pm 20:53 Cloudy 37 2.8 34 1.1 89 89 NE 6 9 30.16 1021 10 16 0.01 0.25
9:53 pm 21:53 Cloudy 36 2.2 33 0.6 89 89 NNE 8 13 30.18 1022 10 16 0.00 0.00
10:53 pm 22:53 Cloudy 36 2.2 33 0.6 89 89 NNE 9 15 30.18 1022 10 16 0.00 0.00
11:43 pm 23:43 Cloudy 37 2.8 34 1.1 89 89 NE 9 15 30.21 1023 10 16 0.00 0.00
11:53 pm 23:53 Cloudy 37 2.8 34 1.1 89 89 ENE 8 13 30.22 1023 10 16 0.00 0.00

Powered by AerisWeather